NV6B Weather Reports


Display with metric or nautical units.
time (UTC)temp
F
wind
direction
speed
MPH
gust
MPH
rain 1hr
in
rain 24hr
in
rain mn
in
humidity
%
barometer
mb
20260509191652 72 233 7.0 7.0 0.00 0.00 0.00 43 1015.7
20260509190651 71 329 4.0 8.0 0.00 0.00 0.00 41 1015.7
20260509185651 71 305 5.0 8.0 0.00 0.00 0.00 42 1015.9
20260509184651 71 305 5.0 5.0 0.00 0.00 0.00 43 1016.1
20260509183651 71 322 4.0 10.0 0.00 0.00 0.00 41 1016.1
20260509182652 70 316 3.0 9.0 0.00 0.00 0.00 44 1016.1
20260509125648 51 291 0.0 3.0 0.00 0.00 0.00 64 1015.4
20260509124648 52 291 1.0 3.0 0.00 0.00 0.00 64 1015.3
20260509123648 52 292 1.0 3.0 0.00 0.00 0.00 63 1015.3
20260509122647 52 291 3.0 3.0 0.00 0.00 0.00 63 1015.2
20260509121647 53 291 3.0 3.0 0.00 0.00 0.00 62 1015.1
20260509120647 53 291 1.0 3.0 0.00 0.00 0.00 61 1015.0
20260509115647 54 289 1.0 7.0 0.00 0.00 0.00 60 1014.9
20260509114647 54 289 3.0 7.0 0.00 0.00 0.00 59 1014.9
20260509113647 54 296 4.0 7.0 0.00 0.00 0.00 59 1014.7
20260509112647 54 267 4.0 9.0 0.00 0.00 0.00 59 1014.8
20260509080645 57 251 5.0 5.0 0.00 0.00 0.00 49 1014.0
20260509075645 58 245 3.0 6.0 0.00 0.00 0.00 50 1013.8
20260509074645 58 257 3.0 5.0 0.00 0.00 0.00 50 1013.7
20260509073645 58 260 1.0 7.0 0.00 0.00 0.00 50 1013.5
20260509072645 58 258 0.0 3.0 0.00 0.00 0.00 51 1013.3
20260509071645 58 250 1.0 2.0 0.00 0.00 0.00 53 1013.1
20260509070645 58 260 5.0 5.0 0.00 0.00 0.00 54 1013.1
20260509065644 58 260 2.0 6.0 0.00 0.00 0.00 54 1012.9
20260509064644 59 244 2.0 3.0 0.00 0.00 0.00 55 1012.7
20260509063644 59 234 2.0 3.0 0.00 0.00 0.00 53 1012.5
20260509062644 60 277 2.0 3.0 0.00 0.00 0.00 53 1012.4
20260509061644 60 277 0.0 0.0 0.00 0.00 0.00 51 1012.2
20260509060644 61 277 1.0 3.0 0.00 0.00 0.00 51 1012.2
20260509055644 62 280 2.0 6.0 0.00 0.00 0.00 49 1012.0
20260509025642 72 360 0.0 0.0 0.00 0.00 0.00 37 1009.2
20260509024642 73 360 0.0 0.0 0.00 0.00 0.00 36 1009.1
20260509023702 74 360 0.0 3.0 0.00 0.00 0.00 35 1009.1
20260509022642 74 360 1.0 4.0 0.00 0.00 0.00 34 1009.1
20260509021642 75 360 2.0 3.0 0.00 0.00 0.00 34 1009.0
20260509020642 75 359 3.0 8.0 0.00 0.00 0.00 33 1008.9
20260508230640 79 339 1.0 8.0 0.00 0.00 0.00 29 1009.1
20260508225640 79 31 3.0 9.0 0.00 0.00 0.00 29 1009.2
20260508224640 80 65 5.0 7.0 0.00 0.00 0.00 28 1009.3
20260508223640 78 358 2.0 7.0 0.00 0.00 0.00 32 1009.6